Temperature
6 6 6 7 7 8 8 8 9 9 10 10 10 11 11 11 11 12 12 11 11 12 11 12 12 12 12 12 12 12 12 13 13 13 13 14 14 14 14 14 14 14 14 14
5 6 7 8 7 7 7 8 8 9 10 10 10 10 11 11 12 12 12 12 12 11 11 12 12 12 12 12 12 12 12 12 13 13 13 14 14 13 14 14 14 13 13 13
5 7 7 7 7 7 7 8 9 9 9 10 10 10 11 11 11 11 11 11 11 11 11 11 12 12 12 12 12 12 12 12 13 13 13 13 13 13 13 13 13 13 13 13
6 7 7 7 7 7 8 9 9 9 9 9 10 10 11 11 11 11 11 11 11 11 11 11 11 12 12 12 12 12 12 12 12 12 12 12 12 12 13 13 13 13 13 13
6 6 6 7 8 8 8 9 9 9 9 10 10 11 10 11 11 11 11 10 10 10 10 11 11 11 12 12 12 12 12 12 12 12 12 12 12 12 12 12 12 12 12 12
6 7 7 7 8 8 8 8 9 9 10 10 10 11 10 10 10 10 10 10 9 10 10 10 11 11 12 12 12 12 12 12 12 12 12 12 12 12 12 12 12 12 12 12
7 7 7 7 8 8 8 9 10 10 10 10 10 10 9 9 9 9 9 9 9 9 9 10 10 11 11 12 12 12 12 12 12 12 12 12 12 12 12 12 12 12 12 12
7 7 7 8 8 8 9 9 10 11 11 10 10 10 9 8 8 8 8 8 8 8 8 9 10 11 11 12 12 12 12 12 12 12 12 12 12 12 12 12 12 12 12 12
8 7 8 8 8 9 9 9 10 11 11 11 10 10 9 9 9 8 7 7 7 6 7 8 9 10 11 11 11 12 12 12 12 12 12 12 12 12 12 12 12 12 11 11
8 8 8 8 9 9 9 10 10 10 11 11 10 10 9 9 8 8 8 7 6 6 6 7 8 9 10 10 11 11 11 11 11 11 12 12 12 12 12 12 11 11 11 11
8 9 8 9 9 9 9 10 10 11 11 12 11 10 9 8 8 8 7 6 5 5 5 6 7 8 9 9 10 10 10 10 11 11 11 11 11 11 11 11 11 11 11 11
8 9 8 8 9 8 9 9 10 11 10 11 12 9 8 8 8 7 7 5 5 5 5 6 7 8 9 9 9 9 10 10 10 10 10 11 11 10 10 10 10 10 10 10
9 9 9 9 10 10 10 9 9 10 10 11 11 9 8 8 7 6 6 5 5 5 5 6 7 8 8 8 8 9 9 9 9 9 10 10 10 10 10 9 9 9 9 9
9 9 9 9 9 9 9 9 9 10 10 11 11 9 8 8 7 6 6 5 5 4 5 5 6 7 7 7 8 8 8 8 8 9 9 9 9 9 9 9 9 8 8 8
9 8 7 8 8 8 8 9 9 9 10 11 10 9 8 8 7 6 6 5 5 4 4 5 5 6 6 7 7 7 7 8 8 8 8 8 8 8 8 8 8 8 8 8
9 8 8 7 8 9 8 8 8 8 9 9 9 8 8 7 6 6 5 4 4 4 3 4 4 5 5 6 6 6 7 7 7 7 7 7 7 7 7 7 7 7 7 7
8 9 8 9 8 9 9 7 8 8 8 9 9 8 7 6 6 5 4 4 3 3 3 3 3 4 4 4 5 5 5 6 6 6 6 6 6 7 7 7 7 6 6 6
8 8 8 8 9 8 8 6 7 7 7 7 7 6 6 6 4 3 3 3 3 2 2 3 3 3 3 3 4 4 4 5 5 5 5 5 5 6 6 6 6 6 6 6
8 8 8 9 9 8 7 6 6 7 7 6 6 6 5 4 4 4 2 2 2 2 2 2 2 2 2 2 3 3 3 3 3 4 4 4 4 5 5 5 5 5 5 5
7 8 9 8 9 9 8 6 5 7 8 6 5 5 4 4 7 6 2 2 2 2 2 2 2 2 2 2 2 2 2 2 2 3 3 3 3 3 4 4 4 4 4 4
8 8 8 8 8 9 7 5 5 8 8 5 4 4 4 4 5 3 2 2 2 1 1 1 1 1 1 1 1 1 1 1 1 2 2 2 2 2 2 3 3 3 3 3
7 8 7 8 8 8 5 5 7 7 4 4 3 3 3 2 2 2 1 1 1 1 1 1 1 1 1 0 0 0 0 0 1 1 1 1 1 1 1 2 2 2 2 2
6 7 8 8 8 5 4 5 4 4 3 3 3 2 2 1 1 1 1 1 1 1 0 0 -0 -0 -0 -0 -0 -1 -0 -0 -0 0 0 0 0 0 0 0 1 1 1 1
5 3 5 6 6 4 3 2 3 3 3 3 3 2 2 1 1 1 1 0 0 -0 -0 -1 -1 -1 -1 -1 -1 -1 -1 -1 -1 -1 -1 -1 -1 -0 -0 -0 -0 0 1 1
6 4 5 6 5 3 2 2 3 3 3 2 2 2 1 1 0 0 -0 -0 -0 -1 -1 -1 -1 -1 -1 -1 -2 -2 -2 -2 -2 -2 -2 -1 -1 -1 -1 -1 -1 -0 -0 0
4 5 6 7 6 5 4 3 3 2 2 2 2 1 1 0 0 -0 -0 -1 -1 -1 -1 -2 -2 -2 -2 -2 -2 -2 -2 -3 -3 -3 -3 -3 -3 -3 -2 -2 -2 -1 -1 -1
Wind_Speed
4 6 7 8 9 7 6 7 7 6 4 7 10 9 8 7 6 7 6 6 5 4 3 4 5 6 7 8 9 10 9 8 7 6 6 6 7 6 6 6 8 10 10 11
4 8 8 7 7 8 7 7 6 4 3 4 6 6 6 6 7 5 6 6 6 5 4 4 6 7 8 10 11 11 10 9 8 7 6 4 4 4 5 5 6 9 9 10
6 3 3 6 7 8 8 8 5 3 1 2 3 3 4 4 4 2 3 3 4 5 5 5 6 7 7 9 9 9 9 9 8 7 4 3 2 2 3 5 6 7 9 9
5 4 5 6 6 7 6 5 5 4 3 2 3 2 1 1 3 1 1 3 3 2 3 3 4 5 6 6 6 6 7 8 8 7 6 6 6 6 6 5 5 6 8 9
2 2 4 5 5 6 3 3 4 4 3 2 1 2 3 3 3 2 2 3 3 3 3 3 3 3 3 3 4 6 6 6 6 6 7 8 8 6 4 4 5 5 5 6
2 2 2 2 3 4 2 2 2 2 2 2 2 2 4 5 4 3 3 5 4 5 4 4 4 4 3 2 2 4 5 5 5 7 8 9 9 8 7 7 7 6 4 4
1 1 0 1 2 2 2 2 3 3 2 3 2 4 5 7 7 4 5 7 7 6 6 6 5 5 4 4 3 3 4 3 3 4 6 7 8 8 9 8 8 7 5 5
1 2 2 1 1 2 2 3 2 2 4 4 3 5 5 8 8 8 9 9 10 10 9 8 7 6 6 6 5 4 4 3 1 2 4 5 6 6 5 7 6 7 7 7
1 2 2 2 1 1 1 1 3 2 4 5 5 4 5 9 11 11 12 13 13 12 11 10 9 9 9 8 7 6 5 4 3 2 0 1 3 3 4 5 6 5 5 5
1 2 3 3 1 2 2 2 1 1 3 5 5 4 3 5 8 9 11 12 12 12 11 11 11 10 9 9 8 8 7 5 4 4 3 1 0 1 2 3 5 5 6 7
1 2 2 2 3 4 3 2 2 2 2 3 5 4 4 2 4 7 9 10 11 11 11 11 11 10 10 10 9 8 7 6 5 4 3 2 2 1 1 3 4 5 6 7
1 1 3 2 1 2 2 3 3 2 3 3 5 5 4 3 5 6 8 9 10 10 10 10 10 11 11 11 10 9 8 7 6 5 4 3 2 1 1 2 3 4 6 6
1 1 2 2 2 2 3 4 4 3 3 3 4 5 4 5 6 6 8 8 9 9 10 10 11 11 11 11 10 9 9 8 7 6 5 3 3 2 1 2 2 4 5 6
2 4 3 3 3 2 3 5 4 3 3 4 5 8 5 5 5 5 6 7 8 9 9 10 10 10 10 10 10 9 9 8 7 6 5 4 3 3 3 2 3 4 5 6
2 4 5 6 4 4 5 6 6 5 4 4 7 7 5 4 4 4 5 5 7 8 9 10 10 10 10 10 10 10 9 9 8 7 6 5 4 3 3 3 4 5 6 6
2 4 3 4 5 5 6 6 5 5 5 7 7 4 4 4 4 4 4 4 5 6 7 8 9 9 10 11 11 11 10 10 8 7 7 6 5 4 4 4 4 5 6 7
2 3 2 2 2 0 3 4 2 3 2 2 3 3 5 4 3 2 2 2 4 5 6 7 8 8 9 10 10 11 11 10 9 8 7 7 6 6 5 4 5 7 7 8
3 3 2 2 1 1 2 2 0 2 2 1 3 4 4 3 2 2 1 2 3 5 6 7 8 8 9 9 9 10 9 9 9 9 8 8 7 7 6 6 7 7 7 8
3 2 2 1 1 1 1 1 1 1 1 1 3 4 3 3 2 2 1 2 4 5 6 6 7 8 8 9 9 9 9 9 9 9 9 9 9 9 8 8 8 7 7 8
4 2 2 2 1 2 2 3 1 2 2 4 4 5 4 3 3 1 1 3 4 5 5 6 7 8 8 9 9 9 9 9 10 10 10 10 9 9 9 9 8 7 7 8
1 1 2 2 2 1 2 2 3 4 1 6 5 4 4 3 2 2 2 3 4 5 6 7 8 8 8 9 9 10 10 10 11 11 11 11 10 10 10 9 8 7 7 7
3 3 3 3 4 3 5 5 5 0 4 5 5 4 3 2 1 2 3 4 5 6 6 7 7 8 8 9 9 10 10 11 11 11 11 11 10 9 8 9 8 8 8 8
4 3 2 3 1 2 4 3 1 2 4 4 4 4 3 3 3 4 4 5 6 7 7 7 8 10 9 9 9 11 12 12 12 12 12 11 11 10 9 9 9 8 8 8
4 2 3 4 5 4 5 4 3 3 4 4 3 3 3 4 4 5 5 6 7 7 8 8 9 10 10 10 10 11 11 11 12 12 12 11 11 10 9 8 8 7 8 8
4 6 4 5 3 3 6 8 6 5 4 4 3 3 4 4 5 6 6 7 7 8 8 9 9 11 12 12 12 11 11 11 12 12 12 11 10 10 10 9 9 9 10 10
7 7 7 5 5 5 4 6 8 7 6 5 4 3 4 5 6 6 7 8 8 9 9 10 11 11 12 12 13 12 11 11 12 11 11 10 9 9 9 9 10 11 13 15
Wind_Direction
207 224 226 224 226 251 261 252 249 246 232 219 216 226 232 229 222 218 209 199 196 195 180 166 174 196 206 203 202 201 194 194 188 182 179 183 193 196 198 197 199 202 203 199
222 235 245 252 239 241 248 250 247 250 232 218 200 227 237 225 223 215 202 189 175 169 167 171 184 193 204 208 206 204 200 198 195 195 187 186 190 198 201 195 200 203 205 200
235 263 247 232 229 228 237 240 236 226 186 208 189 224 226 219 202 187 182 173 160 162 175 187 191 197 203 206 208 206 202 205 206 200 187 172 175 187 194 205 207 206 205 201
255 254 234 230 229 225 237 234 231 217 193 151 200 163 66 169 149 144 154 142 141 138 151 166 175 183 193 196 193 197 198 201 203 199 200 202 219 224 219 219 211 203 205 206
262 252 231 231 236 223 229 249 220 195 162 118 104 132 69 61 73 60 70 104 123 108 111 134 139 161 175 179 187 190 187 193 194 196 207 214 225 234 226 212 203 200 201 200
253 239 253 259 246 208 201 185 160 177 175 95 18 89 64 24 356 7 68 78 90 96 102 106 97 97 100 116 149 166 172 183 191 201 210 215 218 224 219 211 208 207 198 193
52 64 343 222 156 162 201 208 165 153 123 77 36 73 51 7 4 23 63 71 76 85 89 83 81 80 75 77 81 128 152 158 179 199 211 215 217 218 221 214 210 202 196 199
87 56 360 327 254 197 215 277 316 102 113 104 66 65 40 23 39 55 66 75 73 69 66 66 63 66 64 60 64 76 96 107 131 180 206 213 215 213 217 214 212 208 201 193
54 57 350 346 335 258 243 331 325 56 92 93 79 85 71 37 49 57 61 65 64 64 64 63 57 54 54 52 49 53 64 62 48 42 12 210 218 221 216 209 207 202 190 173
15 91 8 340 294 38 346 328 301 61 108 103 96 76 46 28 41 54 59 59 60 60 60 59 56 52 49 48 47 46 48 47 38 32 27 18 2 212 197 196 192 188 180 171
355 82 41 24 22 7 8 16 30 68 26 107 118 89 28 46 65 73 69 62 59 56 54 52 50 49 49 47 44 41 38 37 30 23 15 14 15 26 175 185 185 180 176 173
31 82 72 32 334 300 347 8 349 41 70 62 100 89 33 59 83 80 76 67 60 56 54 51 48 45 42 39 36 32 27 24 17 7 2 3 358 345 227 196 186 181 179 177
113 106 115 122 121 43 31 21 29 58 82 72 99 111 71 93 90 78 74 68 61 54 50 47 43 39 34 30 26 23 19 13 7 360 352 348 337 311 264 219 196 191 187 180
108 56 41 73 54 22 36 27 27 45 73 87 98 125 123 111 100 83 73 68 63 54 46 39 34 31 27 22 18 13 10 5 358 350 343 335 325 310 284 247 217 205 198 191
73 78 74 68 63 77 58 40 44 56 60 97 126 131 139 133 117 97 77 66 56 46 37 31 24 18 14 11 8 3 358 356 349 341 335 328 317 300 274 248 227 214 206 202
60 108 99 67 53 74 63 42 50 56 74 107 121 119 119 116 112 98 78 64 50 35 25 19 14 9 5 1 355 351 348 345 340 335 330 326 316 300 275 252 234 221 214 208
83 124 110 89 352 56 43 10 36 84 78 130 148 134 144 144 136 110 83 56 34 18 10 5 1 358 353 350 345 341 338 336 334 329 325 321 314 302 287 265 243 230 223 216
106 104 94 105 128 128 62 23 55 113 87 84 105 123 149 152 133 111 85 31 10 0 352 350 347 345 342 340 339 335 332 332 330 326 322 318 310 301 291 274 255 243 231 222
37 113 112 131 140 209 196 200 190 187 142 168 158 145 135 132 163 194 159 358 348 341 336 334 334 330 330 333 333 329 329 329 326 324 320 315 307 298 289 275 262 251 238 230
53 73 130 153 206 218 126 128 156 228 214 174 176 168 162 179 240 208 126 333 332 332 330 329 327 325 326 331 330 325 325 325 323 320 313 308 301 293 286 278 269 255 241 235
130 105 159 191 228 239 131 142 168 208 113 153 177 179 183 213 307 7 325 316 319 319 321 323 321 321 323 326 324 319 318 318 317 313 308 304 299 292 287 281 270 256 244 238
194 182 190 196 217 219 149 162 200 138 111 155 172 184 201 234 294 298 299 302 305 310 313 317 315 314 316 319 317 312 311 313 312 309 305 302 299 295 286 279 271 257 244 239
217 226 222 219 239 78 171 196 133 140 165 176 185 194 206 234 261 277 287 294 301 305 308 309 309 308 309 312 310 306 309 313 312 308 304 302 300 294 286 277 270 259 244 239
207 200 218 241 236 216 211 207 198 186 180 173 181 192 212 243 263 275 283 291 297 301 303 305 304 302 304 307 306 302 305 308 306 304 303 301 299 295 289 277 265 256 247 240
194 179 208 238 229 215 221 212 198 183 175 169 177 207 229 248 263 275 283 287 291 295 297 297 296 297 300 304 302 302 302 303 302 301 300 298 295 293 290 282 269 259 254 248
192 191 196 220 196 194 194 188 182 182 189 191 197 223 241 254 268 278 282 285 288 291 295 294 294 295 297 299 298 299 299 298 296 296 297 295 293 292 290 288 284 264 256 259
Height
1479 1478 1472 1469 1469 1467 1464 1461 1458 1455 1455 1456 1454 1453 1453 1454 1455 1455 1456 1459 1460 1462 1464 1465 1468 1471 1475 1479 1482 1485 1488 1492 1496 1500 1504 1507 1510 1513 1516 1518 1521 1524 1526 1529
1477 1472 1469 1468 1468 1467 1465 1462 1457 1455 1454 1453 1452 1453 1452 1453 1454 1454 1455 1458 1459 1461 1462 1464 1467 1471 1474 1477 1480 1482 1485 1489 1493 1497 1501 1504 1507 1510 1513 1515 1518 1520 1523 1525
1471 1468 1467 1467 1465 1465 1462 1460 1456 1454 1454 1452 1452 1453 1451 1451 1452 1453 1455 1456 1458 1460 1462 1464 1467 1470 1472 1475 1478 1481 1484 1488 1491 1494 1498 1501 1505 1507 1509 1511 1514 1516 1518 1520
1468 1467 1466 1464 1462 1461 1459 1456 1455 1454 1453 1452 1452 1451 1449 1449 1450 1453 1455 1456 1458 1460 1462 1464 1466 1469 1472 1474 1476 1479 1482 1486 1488 1491 1494 1498 1501 1503 1505 1508 1509 1512 1514 1516
1467 1465 1464 1462 1460 1460 1458 1456 1454 1453 1451 1451 1450 1448 1452 1450 1451 1453 1455 1456 1458 1460 1462 1464 1466 1468 1470 1472 1475 1477 1480 1483 1486 1488 1491 1495 1498 1500 1501 1503 1505 1507 1509 1511
1465 1465 1464 1461 1459 1459 1458 1457 1454 1452 1448 1451 1453 1447 1455 1457 1457 1456 1456 1457 1458 1460 1463 1464 1466 1468 1470 1471 1473 1476 1478 1481 1484 1486 1489 1491 1494 1496 1497 1498 1500 1502 1504 1507
1463 1462 1462 1462 1459 1459 1458 1455 1451 1449 1448 1452 1454 1452 1462 1463 1462 1459 1459 1459 1460 1461 1463 1465 1466 1468 1469 1471 1473 1475 1477 1480 1482 1484 1486 1488 1490 1492 1493 1494 1496 1497 1500 1502
1461 1462 1462 1461 1459 1457 1456 1454 1448 1443 1444 1451 1455 1457 1466 1466 1465 1464 1462 1462 1463 1463 1464 1466 1467 1468 1470 1471 1473 1475 1477 1479 1481 1482 1483 1485 1487 1488 1489 1489 1491 1493 1495 1497
1459 1462 1461 1460 1459 1458 1454 1452 1452 1446 1445 1448 1457 1463 1466 1467 1467 1467 1466 1466 1466 1467 1468 1468 1469 1470 1471 1472 1474 1475 1476 1478 1479 1480 1482 1483 1484 1485 1485 1486 1488 1489 1490 1492
1462 1462 1462 1461 1459 1458 1457 1454 1450 1449 1446 1450 1459 1462 1468 1470 1471 1471 1471 1471 1471 1471 1471 1471 1471 1472 1473 1474 1475 1476 1477 1478 1479 1479 1480 1481 1482 1482 1483 1483 1484 1485 1487 1488
1462 1461 1463 1461 1460 1459 1457 1455 1452 1450 1446 1444 1453 1468 1475 1475 1476 1476 1476 1476 1476 1475 1475 1474 1474 1475 1475 1475 1476 1476 1477 1478 1478 1479 1479 1479 1480 1480 1480 1481 1481 1482 1483 1485
1463 1460 1462 1463 1462 1463 1460 1458 1454 1449 1456 1450 1452 1475 1479 1479 1480 1480 1480 1480 1480 1479 1478 1477 1477 1477 1477 1477 1477 1477 1477 1478 1478 1478 1478 1478 1477 1477 1478 1478 1478 1479 1480 1481
1463 1461 1462 1460 1463 1462 1459 1460 1459 1455 1455 1455 1456 1476 1481 1481 1482 1483 1483 1483 1483 1482 1481 1480 1480 1479 1478 1478 1478 1478 1478 1477 1477 1476 1476 1476 1475 1475 1475 1475 1475 1476 1477 1477
1464 1463 1463 1462 1463 1464 1462 1462 1461 1458 1456 1458 1461 1472 1480 1482 1484 1486 1486 1486 1486 1485 1483 1482 1481 1481 1480 1479 1479 1478 1477 1476 1476 1475 1474 1474 1473 1472 1472 1472 1472 1473 1473 1474
1464 1467 1470 1470 1470 1469 1468 1466 1464 1464 1461 1460 1467 1472 1479 1483 1485 1487 1488 1488 1487 1486 1485 1484 1483 1482 1481 1480 1479 1478 1476 1475 1474 1473 1472 1471 1470 1470 1469 1469 1469 1469 1470 1470
1466 1469 1471 1472 1471 1469 1470 1471 1470 1470 1469 1470 1473 1479 1483 1486 1487 1488 1489 1489 1488 1487 1486 1485 1484 1483 1481 1479 1478 1477 1475 1473 1472 1470 1469 1467 1466 1466 1465 1465 1465 1465 1465 1465
1469 1469 1471 1470 1472 1468 1470 1476 1475 1475 1477 1474 1473 1480 1485 1487 1488 1489 1489 1489 1489 1488 1487 1485 1484 1482 1481 1479 1477 1475 1473 1471 1469 1467 1465 1464 1462 1461 1460 1460 1460 1460 1460 1460
1470 1471 1473 1472 1471 1475 1479 1482 1481 1479 1480 1481 1481 1484 1485 1487 1489 1489 1489 1489 1488 1487 1486 1485 1483 1481 1479 1477 1475 1473 1470 1468 1465 1463 1461 1459 1458 1456 1455 1455 1454 1454 1454 1454
1473 1471 1471 1471 1470 1472 1479 1481 1481 1479 1480 1483 1483 1485 1487 1488 1488 1488 1488 1488 1487 1486 1485 1483 1481 1479 1477 1474 1472 1469 1467 1464 1462 1460 1457 1455 1454 1452 1451 1450 1449 1448 1448 1448
1476 1474 1472 1472 1469 1469 1474 1481 1483 1483 1478 1483 1484 1485 1486 1487 1484 1485 1487 1486 1486 1484 1483 1481 1479 1476 1474 1471 1468 1466 1463 1460 1458 1455 1453 1451 1449 1447 1445 1444 1443 1442 1442 1441
1475 1475 1473 1472 1471 1469 1478 1482 1484 1480 1475 1482 1483 1484 1486 1486 1486 1487 1485 1485 1484 1482 1480 1478 1476 1474 1471 1468 1465 1462 1459 1456 1454 1451 1448 1446 1444 1441 1440 1438 1437 1436 1435 1435
1474 1473 1474 1473 1472 1473 1479 1481 1480 1477 1480 1481 1483 1484 1485 1485 1485 1484 1484 1483 1481 1480 1478 1475 1473 1470 1468 1464 1461 1458 1455 1452 1449 1446 1443 1441 1438 1436 1434 1432 1431 1429 1429 1428
1477 1475 1472 1473 1474 1476 1478 1478 1479 1479 1480 1481 1482 1483 1483 1484 1483 1483 1482 1480 1478 1477 1474 1472 1469 1466 1464 1461 1458 1454 1451 1447 1444 1441 1438 1435 1432 1430 1428 1426 1424 1423 1422 1421
1478 1480 1478 1475 1474 1476 1477 1477 1478 1478 1479 1480 1481 1482 1482 1482 1481 1480 1479 1477 1475 1473 1471 1468 1465 1462 1459 1457 1453 1450 1446 1443 1439 1436 1432 1429 1426 1424 1422 1420 1418 1416 1415 1414
1471 1476 1475 1472 1473 1475 1474 1475 1476 1477 1478 1479 1479 1480 1480 1479 1478 1477 1476 1474 1472 1469 1467 1464 1461 1458 1455 1451 1448 1445 1441 1438 1434 1430 1427 1423 1420 1417 1415 1413 1411 1409 1408 1408
1469 1469 1468 1465 1467 1469 1470 1471 1473 1475 1476 1477 1477 1477 1477 1476 1475 1474 1472 1470 1468 1465 1462 1459 1456 1453 1449 1446 1442 1439 1436 1432 1428 1424 1421 1418 1414 1411 1409 1406 1404 1402 1401 1400